When you browse on this site, cookies collect data to enhance your experience and personalize the content and advertising you see.
Visit our Privacy Policy to learn more. By continuing to use the site, you agree to this use of cookies and data.
  • In Spain
  • List of Countries
  • For 7 days
  • Water Temperature
  • Satellite Maps
  • Weather Map
  • Weather Widgets
  • user-avatar
    Login

    Hourly Weather Afonki

    Today, 24 May, Friday

    Time Temperature Precipitation Wind Pressure Humidity
    00:00 +15°C° 0 mm 2 mps 739 mmHg 94%
    01:00 +15°C° 0 mm 2 mps 739 mmHg 95%
    02:00 +14°C° 0 mm 1 mps 739 mmHg 97%
    03:00 +15°C° 0.6 mm 2 mps 739 mmHg 97%
    04:00 +15°C° 0.6 mm 2 mps 740 mmHg 97%
    05:00 +14°C° 0.6 mm 3 mps 740 mmHg 97%
    06:00 +14°C° 0 mm 3 mps 740 mmHg 95%
    07:00 +16°C° 0 mm 3 mps 740 mmHg 93%
    08:00 +16°C° 0 mm 3 mps 740 mmHg 91%
    09:00 +16°C° 0.2 mm 3 mps 741 mmHg 90%
    10:00 +16°C° 0.2 mm 3 mps 741 mmHg 90%
    11:00 +16°C° 0.2 mm 3 mps 741 mmHg 90%
    12:00 +17°C° 0 mm 3 mps 741 mmHg 87%
    13:00 +17°C° 0 mm 3 mps 741 mmHg 85%
    14:00 +18°C° 0 mm 3 mps 741 mmHg 83%
    15:00 +18°C° 0.1 mm 3 mps 740 mmHg 82%
    16:00 +19°C° 0.1 mm 3 mps 740 mmHg 81%
    17:00 +19°C° 0.1 mm 4 mps 740 mmHg 80%
    18:00 +18°C° 0.3 mm 3 mps 740 mmHg 85%
    19:00 +17°C° 0.3 mm 3 mps 740 mmHg 90%
    20:00 +16°C° 0.3 mm 3 mps 740 mmHg 94%
    21:00 +16°C° 0.2 mm 3 mps 740 mmHg 95%
    22:00 +14°C° 0.2 mm 3 mps 740 mmHg 96%
    23:00 +14°C° 0.2 mm 3 mps 740 mmHg 97%

    Tomorrow, 25 May, Saturday

    Time Temperature Precipitation Wind Pressure Humidity
    00:00 +14°C° 0 mm 3 mps 739 mmHg 97%
    01:00 +14°C° 0 mm 3 mps 739 mmHg 97%
    02:00 +14°C° 0 mm 3 mps 739 mmHg 97%
    03:00 +14°C° 1.3 mm 3 mps 739 mmHg 97%
    04:00 +15°C° 1.3 mm 2 mps 739 mmHg 97%
    05:00 +15°C° 1.3 mm 2 mps 738 mmHg 97%
    06:00 +16°C° 1.4 mm 2 mps 738 mmHg 96%
    07:00 +16°C° 1.4 mm 2 mps 738 mmHg 96%
    08:00 +16°C° 1.4 mm 3 mps 738 mmHg 95%
    09:00 +17°C° 0.1 mm 3 mps 738 mmHg 92%
    10:00 +18°C° 0.1 mm 2 mps 738 mmHg 89%
    11:00 +19°C° 0.1 mm 2 mps 738 mmHg 86%
    12:00 +20°C° 0.6 mm 3 mps 737 mmHg 83%
    13:00 +21°C° 0.6 mm 3 mps 737 mmHg 79%
    14:00 +21°C° 0.6 mm 3 mps 737 mmHg 75%
    15:00 +21°C° 0.7 mm 3 mps 737 mmHg 78%
    16:00 +21°C° 0.7 mm 2 mps 737 mmHg 81%
    17:00 +20°C° 0.7 mm 2 mps 736 mmHg 83%
    18:00 +19°C° 0.6 mm 2 mps 736 mmHg 86%
    19:00 +18°C° 0.6 mm 2 mps 736 mmHg 88%
    20:00 +16°C° 0.6 mm 3 mps 736 mmHg 90%
    21:00 +15°C° 0 mm 2 mps 736 mmHg 92%
    22:00 +15°C° 0 mm 2 mps 737 mmHg 93%
    23:00 +14°C° 0 mm 2 mps 737 mmHg 94%

    Day after tomorrow, 26 May, Sunday

    Time Temperature Precipitation Wind Pressure Humidity
    00:00 +13°C° 0 mm 2 mps 737 mmHg 95%
    01:00 +12°C° 0 mm 2 mps 737 mmHg 95%
    02:00 +12°C° 0 mm 2 mps 737 mmHg 96%
    03:00 +12°C° 0 mm 2 mps 737 mmHg 96%
    04:00 +12°C° 0 mm 2 mps 738 mmHg 96%
    05:00 +12°C° 0 mm 2 mps 738 mmHg 96%
    06:00 +13°C° 0 mm 2 mps 738 mmHg 91%
    07:00 +14°C° 0 mm 2 mps 738 mmHg 86%
    08:00 +15°C° 0 mm 2 mps 738 mmHg 81%
    09:00 +16°C° 0 mm 2 mps 738 mmHg 75%
    10:00 +17°C° 0 mm 3 mps 738 mmHg 68%
    11:00 +18°C° 0 mm 3 mps 738 mmHg 62%
    12:00 +18°C° 0 mm 3 mps 738 mmHg 61%
    13:00 +19°C° 0 mm 3 mps 738 mmHg 61%
    14:00 +19°C° 0 mm 4 mps 738 mmHg 60%
    15:00 +19°C° 0 mm 4 mps 738 mmHg 62%
    16:00 +18°C° 0 mm 4 mps 738 mmHg 63%
    17:00 +18°C° 0 mm 4 mps 738 mmHg 64%
    18:00 +17°C° 0 mm 4 mps 738 mmHg 70%
    19:00 +14°C° 0 mm 3 mps 738 mmHg 75%
    20:00 +14°C° 0 mm 2 mps 737 mmHg 81%
    21:00 +12°C° 0 mm 3 mps 738 mmHg 83%
    22:00 +12°C° 0 mm 3 mps 738 mmHg 84%
    23:00 +12°C° 0 mm 3 mps 738 mmHg 86%

    27 May, Monday

    Time Temperature Precipitation Wind Pressure Humidity
    00:00 +11°C° 0 mm 3 mps 738 mmHg 88%
    01:00 +11°C° 0 mm 3 mps 738 mmHg 90%
    02:00 +11°C° 0 mm 3 mps 738 mmHg 92%
    03:00 +11°C° 0 mm 3 mps 739 mmHg 92%
    04:00 +10°C° 0 mm 3 mps 739 mmHg 92%
    05:00 +10°C° 0 mm 3 mps 739 mmHg 91%
    06:00 +11°C° 0 mm 4 mps 740 mmHg 84%
    07:00 +12°C° 0 mm 4 mps 740 mmHg 76%
    08:00 +13°C° 0 mm 5 mps 741 mmHg 69%
    09:00 +14°C° 0 mm 5 mps 741 mmHg 67%
    10:00 +15°C° 0 mm 5 mps 741 mmHg 66%
    11:00 +16°C° 0 mm 6 mps 741 mmHg 64%
    12:00 +16°C° 0.1 mm 5 mps 741 mmHg 65%
    13:00 +17°C° 0.1 mm 5 mps 742 mmHg 67%
    14:00 +17°C° 0.1 mm 5 mps 742 mmHg 68%
    15:00 +18°C° 0 mm 4 mps 742 mmHg 70%
    16:00 +18°C° 0 mm 4 mps 742 mmHg 71%
    17:00 +18°C° 0 mm 3 mps 741 mmHg 73%
    18:00 +17°C° 0 mm 3 mps 742 mmHg 78%
    19:00 +16°C° 0 mm 3 mps 742 mmHg 83%
    20:00 +16°C° 0 mm 3 mps 742 mmHg 88%
    21:00 +14°C° 0 mm 3 mps 742 mmHg 87%
    22:00 +14°C° 0 mm 3 mps 742 mmHg 87%
    23:00 +14°C° 0 mm 3 mps 741 mmHg 87%

    28 May, Tuesday

    Time Temperature Precipitation Wind Pressure Humidity
    00:00 +14°C° 0 mm 3 mps 742 mmHg 87%
    01:00 +13°C° 0 mm 3 mps 742 mmHg 88%
    02:00 +13°C° 0 mm 3 mps 742 mmHg 88%
    03:00 +13°C° 0 mm 3 mps 742 mmHg 89%
    04:00 +14°C° 0 mm 3 mps 742 mmHg 89%
    05:00 +14°C° 0 mm 3 mps 742 mmHg 90%
    06:00 +16°C° 0 mm 3 mps 742 mmHg 86%
    07:00 +18°C° 0 mm 3 mps 742 mmHg 83%
    08:00 +20°C° 0 mm 3 mps 743 mmHg 79%
    09:00 +21°C° 0 mm 3 mps 743 mmHg 75%
    10:00 +22°C° 0 mm 3 mps 743 mmHg 71%
    11:00 +24°C° 0 mm 3 mps 743 mmHg 67%
    12:00 +24°C° 0.4 mm 3 mps 743 mmHg 67%
    13:00 +25°C° 0.4 mm 4 mps 743 mmHg 67%
    14:00 +25°C° 0.4 mm 4 mps 743 mmHg 68%
    15:00 +24°C° 0.8 mm 3 mps 742 mmHg 75%
    16:00 +22°C° 0.8 mm 3 mps 742 mmHg 83%
    17:00 +20°C° 0.8 mm 2 mps 742 mmHg 90%
    18:00 +20°C° 0 mm 3 mps 742 mmHg 90%
    19:00 +20°C° 0 mm 3 mps 742 mmHg 91%
    20:00 +20°C° 0 mm 4 mps 742 mmHg 91%
    21:00 +19°C° 0 mm 4 mps 742 mmHg 90%
    22:00 +19°C° 0 mm 4 mps 742 mmHg 88%
    23:00 +19°C° 0 mm 4 mps 742 mmHg 87%

    29 May, Wednesday

    Time Temperature Precipitation Wind Pressure Humidity
    00:00 +19°C° 0 mm 4 mps 741 mmHg 89%
    01:00 +19°C° 0 mm 4 mps 741 mmHg 91%
    02:00 +18°C° 0 mm 4 mps 741 mmHg 93%
    03:00 +18°C° 0 mm 4 mps 741 mmHg 92%
    04:00 +18°C° 0 mm 4 mps 741 mmHg 90%
    05:00 +17°C° 0 mm 5 mps 741 mmHg 89%
    06:00 +19°C° 0 mm 5 mps 741 mmHg 83%
    07:00 +20°C° 0 mm 6 mps 741 mmHg 78%
    08:00 +22°C° 0 mm 6 mps 741 mmHg 72%
    09:00 +23°C° 0 mm 6 mps 741 mmHg 70%
    10:00 +23°C° 0 mm 6 mps 741 mmHg 68%
    11:00 +24°C° 0 mm 6 mps 741 mmHg 67%
    12:00 +26°C° 0.4 mm 7 mps 740 mmHg 69%
    13:00 +26°C° 0.4 mm 7 mps 740 mmHg 71%
    14:00 +26°C° 0.4 mm 7 mps 740 mmHg 73%
    15:00 +24°C° 1.6 mm 6 mps 740 mmHg 77%
    16:00 +23°C° 1.6 mm 6 mps 740 mmHg 80%
    17:00 +22°C° 1.6 mm 6 mps 740 mmHg 84%
    18:00 +21°C° 0.3 mm 5 mps 740 mmHg 87%
    19:00 +20°C° 0.3 mm 4 mps 740 mmHg 89%
    20:00 +19°C° 0.3 mm 3 mps 740 mmHg 92%
    21:00 +19°C° 0.4 mm 3 mps 740 mmHg 93%
    22:00 +19°C° 0.4 mm 3 mps 740 mmHg 94%
    23:00 +18°C° 0.4 mm 3 mps 740 mmHg 96%
    Show more